ORBCOMM FM04 [+]

Last updated on Fri Dec 29 2023 00:02:53 GMT+0000 (Coordinated Universal Time)

1 25159U 98007C 23362.18934070 .00001779 00000+0 70535-3 0 9990 2 25159 107.9720 117.6782 0040850 105.7140 254.8510 14.31903356347393
UTC large
Height (km)
Speed (km/s)
/
Latitude / Longitude
Inclination (degrees)
Orbital Period (minutes)
Azimuth
Elevation
Range (km)
Doppler Factor

Next 0 passes for location: London (51.5072 / 0.1276)

Sorry there are no passes over London.